Tracking 20093 objects as of 14-Dec-2019
HD Live streaming from Space Station
objects crossing your sky now

FENGYUN 1C DEB

Track FENGYUN 1C DEB now!
10-day predictions


NORAD ID: 31272
Int'l Code: 1999-025BNE
Perigee: 758.3 km
Apogee: 923.7 km
Inclination: 99.1 °
Period: 101.6 minutes
Semi major axis: 7212 km
RCS: 0.0083 m2 (small)
Launch date: May 10, 1999
Source: People's Republic of China (PRC)
Launch site: Taiyaun Space Center, China (TSC)

Note: This is SATELLITE DEBRIS
aabbcc
Your satellite tracking list
Your tracking list is empty




NASA's NSSDC Master Catalog

Two Line Element Set (TLE):
1 31272U 99025BNE 19347.86142038 +.00000144 +00000-0 +88200-4 0  9997
2 31272 099.0639 119.5591 0114623 217.5457 295.9537 14.17485415659125
Source of the keplerian elements: AFSPC